Home > Weather > Straubing > Past weeks

Flag for Germany Weather for the Past 2 Weeks in Straubing, Bavaria, Germany

Now
60 °F

Sunny.


Feels Like: 60 °F
Forecast: 48 / 70 °F
Wind: 8 mph from Southeast

Location: Straubing

Current Time: May 5, 2016 at 4:50:03 PM

Latest Report: May 5, 2016 at 4:00 PM


Visibility: 14 mi

Pressure: 30.21 "Hg

Humidity: 57%

Dew Point: 45 °F

Location of StraubingLocation

Historic Weather in Straubing — Graph

°F

Straubing Temperature Yesterday

Maximum temperature yesterday: 53 °F (at 4:00 PM)
Minimum temperature yesterday: 45 °F (at 4:00 AM)
Average temperature yesterday: 48 °F

High & Low Weather Summary for the Past Weeks

 TemperatureHumidityPressure
High66 °F (Apr 30, 4:00 PM)99% (Apr 29, 1:00 AM)30.38 "Hg (Apr 29, 1:00 AM)
Low27 °F (Apr 29, 6:00 AM)23% (Apr 21, 4:00 PM)29.60 "Hg (Apr 26, 10:00 AM)
Average47 °F67%30.03 "Hg
* Reported Apr 20 3:00 PM — May 5 3:00 PM, Straubing, Weather by CustomWeather, © 2016

Note: Actual official high and low records may vary slightly from our data, if they occured in-between our weather recording intervals... More about our weather records

Advertising

Straubing Weather History for the Previous 24 Hours

Scroll right to see more
 ConditionsComfort  
Time TempWeatherWind HumidityBarometerVisibility
3:00 PM
Thu, May 5
61 °FScattered clouds.7 mph62%30.23 "Hg12 mi
1:00 PM58 °FPassing clouds.5 mph65%30.27 "Hg12 mi
12:00 PM56 °FPartly sunny.6 mph67%30.29 "Hg15 mi
10:00 AM51 °FPassing clouds.2 mph70%30.33 "Hg17 mi
9:00 AM47 °FOvercast.1 mph78%30.34 "Hg19 mi
7:00 AM43 °FScattered clouds.1 mph91%30.35 "Hg10 mi
6:00 AM43 °FOvercast.1 mph90%30.35 "Hg16 mi
4:00 AM43 °FOvercast.1 mph84%30.36 "Hg31 mi
3:00 AM42 °FOvercast.1 mph86%30.37 "Hg31 mi
1:00 AM43 °FOvercast.No wind85%30.38 "Hg25 mi
12:00 AM45 °FClear.2 mph75%30.37 "Hg40 mi
10:00 PM
Wed, May 4
47 °FOvercast.2 mph70%30.37 "Hg28 mi
9:00 PM48 °FOvercast.3 mph69%30.35 "Hg19 mi
7:00 PM51 °FPassing clouds.5 mph64%30.32 "Hg22 mi
6:00 PM52 °FPassing clouds.5 mph61%30.31 "Hg28 mi
4:00 PM53 °FCool.N/A62%30.31 "Hg28 mi
Weather by CustomWeather, © 2016

See weather overviewHow to use our weather pages